Regional Weather Roundup
Issued by NWS Glasgow, MT

Home | Current Version | Previous Version | Text Only | Print | Product List | Glossary On
Versions: 1 2 3 4 5 6 7 8 9 10 11 12 13 14 15 16 17 18 19 20 21 22 23 24 25 26 27 28 29 30 31 32 33 34 35 36 37 38 39 40 41 42 43 44 45 46 47 48 49 50
000
ASUS45 KGGW 220015
RWRGGW
HOURLY WEATHER ROUNDUP FOR NORTHEAST MONTANA
NATIONAL WEATHER SERVICE GLASGOW MONTANA
600 PM MDT THU AUG 21 2014

NOTE: "FAIR" INDICATES FEW OR NO CLOUDS BELOW 12,000 FEET WITH NO
SIGNIFICANT WEATHER AND/OR OBSTRUCTIONS TO VISISBILITY.

NORTHEAST MONTANA


CITY           SKY/WX    TMP DP  RH WIND       PRES   REMARKS
GLASGOW        HVY RAIN  61  60  97 NE7       30.03R FOG
6HR MIN TEMP:  61; 6HR MAX TEMP:  75; 6HR PCP:  0.35;

PLENTYWOOD       N/A     72  50  45 N12         N/A
WOLF POINT     HVY RAIN  63  59  87 W13       30.01R VSB 1/2
JORDAN           N/A     66  58  75 N10       30.02R
WINNETT          N/A     62  57  83 SW7         N/A
SIDNEY         MOSUNNY   73  63  68 E3        29.98R
GLENDIVE       SUNNY     68  61  77 NE9       29.99S
MALTA            N/A     62  58  86 NE3         N/A

FORT PECK REPORTS


CITY           SKY/WX    TMP DP  RH WIND       PRES   REMARKS
FORT PECK        N/A     64  58  80 W12         N/A
THE PINES        N/A     62  56  80 NW7         N/A

SOUTHEAST MONTANA


CITY           SKY/WX    TMP DP  RH WIND       PRES   REMARKS
BILLINGS       LGT RAIN  60  58  92 N6        30.09R
MILES CITY     LGT RAIN  71  58  63 NW7       29.99R
BAKER          PTSUNNY   76  57  51 NE7       29.98S
LIVINGSTON     MOSUNNY   65  51  60 E14       30.09R

CENTRAL MONTANA


CITY           SKY/WX    TMP DP  RH WIND       PRES   REMARKS
HAVRE          PTSUNNY   64  52  64 N17G26    30.08R
LEWISTOWN      CLOUDY    60  55  83 W8        30.12R
GREAT FALLS    CLOUDY    64  49  57 N13       30.10R
CUT BANK       CLOUDY    54  48  80 N14       30.16R
HELENA         PTSUNNY   65  50  58 N18G28    30.05R
BUTTE          CLOUDY    63  47  55 S13       30.08S
BOZEMAN        MOSUNNY   66  50  56 N7        30.06F

WESTERN MONTANA


CITY           SKY/WX    TMP DP  RH WIND       PRES   REMARKS
MISSOULA       LGT RAIN  70  50  49 N14G21    29.99R
KALISPELL      NOT AVBL

NORTH DAKOTA


CITY           SKY/WX    TMP DP  RH WIND       PRES   REMARKS
WILLISTON      PTSUNNY   76  56  49 NE9       29.96S
DICKINSON      MOSUNNY   71  60  68 N12       29.96R
MINOT          MOSUNNY   72  62  71 NW12      29.91R
BISMARCK       SUNNY     80  62  54 NW14      29.91R

SOUTHERN SASKATCHEWAN


CITY           SKY/WX    TMP DP  RH WIND       PRES   REMARKS
REGINA         PTSUNNY   64  55  72 N13G20    30.04R
MOOSE JAW      PTSUNNY   66  57  72 N12       30.05S
ESTEVAN        PTSUNNY   70  57  64 N7        29.97R
SWIFT CURRENT  LGT RAIN  57  55  94 N14       30.10S



USA.gov is the U.S. government's official web portal to all federal, state and local government web resources and services.